Flag for Central African Republic Weather past 2 weeks in Bangui, Central African Republic

Now
75 °F

Partly sunny.


Feels Like: 74 °F
Forecast: 73 / 89 °F
Wind: 2 mph from South

Location: Bangui Airport

Current Time: Apr 2, 2015 at 9:05:48 AM

Latest Report: Apr 2, 2015 at 8:00 AM


Visibility: 5 mi

Pressure: 29.89 "Hg

Humidity: 94%

Dew point: 73 °F

Location of BanguiLocation

Historic Weather in Bangui — Graph

°F

Bangui temperature yesterday

Maximum temperature yesterday: 93 °F (at 12:00 PM)
Minimum temperature yesterday: 72 °F (at 6:00 AM)
Average temperature yesterday: 79 °F

Past Weeks' High & Low Weather Summary

 TemperatureHumidityPressure
High100 °F (Mar 26, 1:00 PM)100% (Mar 18, 8:00 AM)30.01 "Hg (Mar 18, 8:00 AM)
Low68 °F (Mar 28, 6:00 AM)40% (Mar 26, 1:00 PM)29.68 "Hg (Mar 19, 3:00 PM)
Average81 °F79%29.82 "Hg
* Reported Mar 18 7:00 AM — Apr 2 7:00 AM, Bangui, Weather by CustomWeather, © 2015

Note: Actual official high and low records may vary slightly from our data, if they occured in-between our weather recording intervals... More about our weather records

Advertising

Bangui weather history for previous 24 hours

 ConditionsComfort  
Time TempWeatherWind HumidityBarometerVisibility
7:00 AM
Thu, Apr 2
73 °FPartly sunny.3 mph94%29.86 "Hg5 mi
6:00 AM72 °FPartly sunny.No wind100%29.86 "Hg5 mi
5:00 AM72 °FClear.2 mph100%29.83 "Hg10 mi
4:00 AM72 °FClear.No wind100%29.83 "Hg10 mi
3:00 AM73 °FClear.No wind94%29.83 "Hg10 mi
2:00 AM73 °FClear.No wind100%29.83 "Hg10 mi
1:00 AM75 °FClear.No wind94%29.86 "Hg10 mi
12:00 AM75 °FClear.No wind94%29.89 "Hg10 mi
11:00 PM
Wed, Apr 1
75 °FClear.No wind94%29.89 "Hg10 mi
10:00 PM73 °FClear.1 mph94%29.86 "Hg10 mi
9:00 PM75 °FClear.2 mph94%29.86 "Hg10 mi
8:00 PM75 °FThunderstorms. Passing clouds.No wind89%29.86 "HgN/A
7:00 PM75 °FThunderstorms. Passing clouds.3 mph94%29.86 "Hg5 mi
6:00 PM77 °FThunderstorms. Passing clouds.3 mph83%29.80 "Hg5 mi
5:00 PM77 °FThunderstorms. Scattered clouds.No wind83%29.77 "Hg5 mi
4:00 PM77 °FThunderstorms. Scattered clouds.6 mph89%29.77 "Hg4 mi
3:00 PM84 °FThunderstorms. Scattered clouds.7 mph70%29.74 "HgN/A
2:00 PM93 °FScattered clouds.3 mph53%29.77 "HgN/A
12:00 PM93 °FPartly sunny.7 mph53%29.86 "HgN/A
11:00 AM90 °FScattered clouds.6 mph55%29.89 "HgN/A
10:00 AM88 °FPassing clouds.3 mph66%29.92 "HgN/A
9:00 AM84 °FSunny.7 mph74%29.92 "Hg10 mi
Weather by CustomWeather, © 2015

See weather overviewHow to use our weather pages